Time,TemperatureF,DewpointF,PressureIn,WindDirection,WindDirectionDegrees,WindSpeedMPH,WindSpeedGustMPH,Humidity,HourlyPrecipIn,Conditions,Clouds,dailyrainin,SolarRadiationWatts/m^2,SoftwareType,DateUTC
2013-06-10 12:29:00,67.9,51.1,29.59,East,87,0.0,0.0,55,0.00,,,0.00,28,Wunderground v.1.15,2013-06-10 19:29:00,
2013-06-10 12:34:00,68.3,51.5,29.59,East,86,0.0,0.0,55,0.00,,,0.00,0,Wunderground v.1.15,2013-06-10 19:34:00,
2013-06-10 12:39:00,68.7,51.4,29.59,East,86,0.0,0.0,54,0.00,,,0.00,30,Wunderground v.1.15,2013-06-10 19:39:00,
2013-06-10 12:44:00,69.0,51.7,29.59,East,86,0.0,0.0,54,0.00,,,0.00,30,Wunderground v.1.15,2013-06-10 19:44:00,
2013-06-10 12:49:00,69.3,51.9,29.59,East,86,0.0,0.0,54,0.00,,,0.00,30,Wunderground v.1.15,2013-06-10 19:49:00,
2013-06-10 12:54:00,69.6,51.7,29.59,East,86,0.0,0.0,53,0.00,,,0.00,30,Wunderground v.1.15,2013-06-10 19:54:00,
2013-06-10 12:59:00,69.9,52.0,29.59,East,86,0.0,0.0,53,0.00,,,0.00,30,Wunderground v.1.15,2013-06-10 19:59:00,
2013-06-10 13:04:00,70.1,51.7,29.58,East,86,0.0,0.0,52,0.00,,,0.00,30,Wunderground v.1.15,2013-06-10 20:04:00,
2013-06-10 13:09:00,70.3,51.8,29.58,East,86,0.0,0.0,52,0.00,,,0.00,32,Wunderground v.1.15,2013-06-10 20:09:00,
2013-06-10 13:14:00,70.6,52.1,29.58,East,86,0.0,0.0,52,0.00,,,0.00,30,Wunderground v.1.15,2013-06-10 20:14:00,
2013-06-10 13:19:00,70.8,52.3,29.58,East,86,0.0,0.0,52,0.00,,,0.00,30,Wunderground v.1.15,2013-06-10 20:19:00,
2013-06-10 13:24:00,71.0,52.0,29.58,East,86,0.0,0.0,51,0.00,,,0.00,30,Wunderground v.1.15,2013-06-10 20:24:00,
2013-06-10 13:29:00,71.1,52.0,29.58,East,86,0.0,0.0,51,0.00,,,0.00,28,Wunderground v.1.15,2013-06-10 20:29:00,
2013-06-10 13:34:00,71.3,52.2,29.58,East,86,0.0,0.0,51,0.00,,,0.00,19,Wunderground v.1.15,2013-06-10 20:34:00,
2013-06-10 13:39:00,71.5,51.9,29.57,East,86,0.0,0.0,50,0.00,,,0.00,14,Wunderground v.1.15,2013-06-10 20:39:00,
2013-06-10 13:44:00,71.6,52.0,29.57,East,86,0.0,0.0,50,0.00,,,0.00,9,Wunderground v.1.15,2013-06-10 20:44:00,
2013-06-10 13:49:00,71.7,52.1,29.57,East,86,0.0,0.0,50,0.00,,,0.00,5,Wunderground v.1.15,2013-06-10 20:49:00,
2013-06-10 13:54:00,71.9,51.7,29.57,East,86,0.0,0.0,49,0.00,,,0.00,0,Wunderground v.1.15,2013-06-10 20:54:00,
2013-06-10 13:59:00,72.0,51.8,29.57,East,86,0.0,0.0,49,0.00,,,0.00,0,Wunderground v.1.15,2013-06-10 20:59:00,
2013-06-10 14:04:00,72.0,51.2,29.56,East,86,0.0,0.0,48,0.00,,,0.00,0,Wunderground v.1.15,2013-06-10 21:04:00,
2013-06-10 14:09:00,72.1,51.3,29.56,East,86,0.0,0.0,48,0.00,,,0.00,0,Wunderground v.1.15,2013-06-10 21:09:00,
2013-06-10 14:14:00,72.2,51.4,29.56,East,86,0.0,0.0,48,0.00,,,0.00,0,Wunderground v.1.15,2013-06-10 21:14:00,
2013-06-10 14:19:00,72.2,51.4,29.56,East,86,0.0,0.0,48,0.00,,,0.00,0,Wunderground v.1.15,2013-06-10 21:19:00,
2013-06-10 14:24:00,72.3,50.9,29.56,East,86,0.0,0.0,47,0.00,,,0.00,0,Wunderground v.1.15,2013-06-10 21:24:00,
2013-06-10 14:29:00,72.3,50.9,29.56,East,86,0.0,0.0,47,0.00,,,0.00,0,Wunderground v.1.15,2013-06-10 21:29:00,
2013-06-10 14:34:00,72.3,50.9,29.56,East,86,0.0,0.0,47,0.00,,,0.00,0,Wunderground v.1.15,2013-06-10 21:34:00,
2013-06-10 14:39:00,72.3,50.9,29.56,East,86,0.0,0.0,47,0.00,,,0.00,0,Wunderground v.1.15,2013-06-10 21:39:00,
2013-06-10 14:44:00,72.4,51.0,29.56,East,86,0.0,0.0,47,0.00,,,0.00,0,Wunderground v.1.15,2013-06-10 21:44:00,
2013-06-10 14:49:00,72.4,51.0,29.56,East,86,0.0,0.0,47,0.00,,,0.00,0,Wunderground v.1.15,2013-06-10 21:49:00,
2013-06-10 14:54:00,72.4,51.0,29.56,East,86,0.0,0.0,47,0.00,,,0.00,0,Wunderground v.1.15,2013-06-10 21:54:00,
2013-06-10 14:59:00,72.4,51.0,29.56,East,86,0.0,0.0,47,0.00,,,0.00,0,Wunderground v.1.15,2013-06-10 21:59:00,
2013-06-10 15:04:00,72.4,51.0,29.56,East,86,0.0,0.0,47,0.00,,,0.00,0,Wunderground v.1.15,2013-06-10 22:04:00,
2013-06-10 15:09:00,72.4,51.0,29.56,East,86,0.0,0.0,47,0.00,,,0.00,0,Wunderground v.1.15,2013-06-10 22:09:00,
2013-06-10 15:14:00,72.5,51.1,29.56,East,86,0.0,0.0,47,0.00,,,0.00,0,Wunderground v.1.15,2013-06-10 22:14:00,
2013-06-10 15:19:00,72.5,51.1,29.56,East,86,0.0,0.0,47,0.00,,,0.00,0,Wunderground v.1.15,2013-06-10 22:19:00,
2013-06-10 15:24:00,72.5,51.1,29.56,East,86,0.0,0.0,47,0.00,,,0.00,0,Wunderground v.1.15,2013-06-10 22:24:00,
2013-06-10 15:29:00,72.5,51.1,29.56,East,86,0.0,0.0,47,0.00,,,0.00,0,Wunderground v.1.15,2013-06-10 22:29:00,
2013-06-10 15:34:00,72.5,51.1,29.56,East,86,0.0,0.0,47,0.00,,,0.00,0,Wunderground v.1.15,2013-06-10 22:34:00,
2013-06-10 15:39:00,72.5,51.1,29.56,East,86,0.0,0.0,47,0.00,,,0.00,0,Wunderground v.1.15,2013-06-10 22:39:00,
2013-06-10 15:44:00,72.5,50.5,29.55,East,86,0.0,0.0,46,0.00,,,0.00,0,Wunderground v.1.15,2013-06-10 22:44:00,
2013-06-10 15:49:00,72.6,50.6,29.55,East,86,0.0,0.0,46,0.00,,,0.00,0,Wunderground v.1.15,2013-06-10 22:49:00,
2013-06-10 15:54:00,72.6,50.6,29.55,East,86,0.0,0.0,46,0.00,,,0.00,0,Wunderground v.1.15,2013-06-10 22:54:00,
2013-06-10 15:59:00,72.6,50.6,29.55,East,86,0.0,0.0,46,0.00,,,0.00,0,Wunderground v.1.15,2013-06-10 22:59:00,
2013-06-10 16:04:00,72.6,50.6,29.55,East,86,0.0,0.0,46,0.00,,,0.00,0,Wunderground v.1.15,2013-06-10 23:04:00,
2013-06-10 16:09:00,72.6,50.6,29.55,East,86,0.0,0.0,46,0.00,,,0.00,0,Wunderground v.1.15,2013-06-10 23:09:00,
2013-06-10 16:14:00,72.6,50.6,29.55,East,86,0.0,0.0,46,0.00,,,0.00,0,Wunderground v.1.15,2013-06-10 23:14:00,
2013-06-10 16:19:00,72.6,50.0,29.55,East,86,0.0,0.0,45,0.00,,,0.00,0,Wunderground v.1.15,2013-06-10 23:19:00,
2013-06-10 16:24:00,72.6,50.0,29.55,East,86,0.0,0.0,45,0.00,,,0.00,0,Wunderground v.1.15,2013-06-10 23:24:00,
2013-06-10 16:29:00,72.7,50.7,29.55,East,86,0.0,0.0,46,0.00,,,0.00,0,Wunderground v.1.15,2013-06-10 23:29:00,
2013-06-10 16:34:00,72.6,50.6,29.55,East,86,0.0,0.0,46,0.00,,,0.00,0,Wunderground v.1.15,2013-06-10 23:34:00,
2013-06-10 16:39:00,72.7,51.3,29.54,East,86,0.0,0.0,47,0.00,,,0.00,0,Wunderground v.1.15,2013-06-10 23:39:00,
2013-06-10 16:44:00,72.7,51.3,29.54,East,86,0.0,0.0,47,0.00,,,0.00,0,Wunderground v.1.15,2013-06-10 23:44:00,
2013-06-10 16:49:00,72.7,51.3,29.54,East,86,0.0,0.0,47,0.00,,,0.00,0,Wunderground v.1.15,2013-06-10 23:49:00,
2013-06-10 16:54:00,72.7,51.3,29.54,East,86,0.0,0.0,47,0.00,,,0.00,0,Wunderground v.1.15,2013-06-10 23:54:00,
2013-06-10 16:59:00,72.7,51.9,29.54,East,86,0.0,0.0,48,0.00,,,0.00,0,Wunderground v.1.15,2013-06-10 23:59:00,
2013-06-10 17:04:00,72.7,51.9,29.54,East,86,0.0,0.0,48,0.00,,,0.00,0,Wunderground v.1.15,2013-06-11 00:04:00,
2013-06-10 17:09:00,72.7,51.9,29.54,East,86,0.0,0.0,48,0.00,,,0.00,0,Wunderground v.1.15,2013-06-11 00:09:00,
2013-06-10 17:14:00,72.7,51.9,29.54,East,86,0.0,0.0,48,0.00,,,0.00,0,Wunderground v.1.15,2013-06-11 00:14:00,
2013-06-10 17:19:00,72.7,51.9,29.54,East,86,0.0,0.0,48,0.00,,,0.00,0,Wunderground v.1.15,2013-06-11 00:19:00,
2013-06-10 17:24:00,72.7,51.9,29.53,East,86,0.0,0.0,48,0.00,,,0.00,0,Wunderground v.1.15,2013-06-11 00:24:00,
2013-06-10 17:29:00,72.7,51.9,29.53,East,86,0.0,0.0,48,0.00,,,0.00,0,Wunderground v.1.15,2013-06-11 00:29:00,
2013-06-10 17:34:00,72.7,51.9,29.53,East,86,0.0,0.0,48,0.00,,,0.00,0,Wunderground v.1.15,2013-06-11 00:34:00,
2013-06-10 17:39:00,72.7,51.9,29.53,East,86,0.0,0.0,48,0.00,,,0.00,0,Wunderground v.1.15,2013-06-11 00:39:00,
2013-06-10 17:44:00,72.7,51.9,29.53,East,86,0.0,0.0,48,0.00,,,0.00,0,Wunderground v.1.15,2013-06-11 00:44:00,
2013-06-10 17:49:00,72.7,51.9,29.53,East,86,0.0,0.0,48,0.00,,,0.00,0,Wunderground v.1.15,2013-06-11 00:49:00,
2013-06-10 17:54:00,72.6,51.8,29.53,East,86,0.0,0.0,48,0.00,,,0.00,0,Wunderground v.1.15,2013-06-11 00:54:00,
2013-06-10 17:59:00,72.6,51.8,29.53,East,86,0.0,0.0,48,0.00,,,0.00,0,Wunderground v.1.15,2013-06-11 00:59:00,
2013-06-10 18:04:00,72.6,51.8,29.53,East,86,0.0,0.0,48,0.00,,,0.00,0,Wunderground v.1.15,2013-06-11 01:04:00,
2013-06-10 18:09:00,72.6,51.8,29.53,East,86,0.0,0.0,48,0.00,,,0.00,0,Wunderground v.1.15,2013-06-11 01:09:00,
2013-06-10 18:13:00,72.6,51.8,29.53,East,86,0.0,0.0,48,0.00,,,0.00,0,Wunderground v.1.15,2013-06-11 01:13:00,
2013-06-10 18:18:00,72.6,51.8,29.53,East,86,0.0,0.0,48,0.00,,,0.00,0,Wunderground v.1.15,2013-06-11 01:18:00,
2013-06-10 18:23:00,72.6,51.8,29.53,East,86,0.0,0.0,48,0.00,,,0.00,0,Wunderground v.1.15,2013-06-11 01:23:00,
2013-06-10 18:28:00,72.6,51.8,29.53,East,86,0.0,0.0,48,0.00,,,0.00,0,Wunderground v.1.15,2013-06-11 01:28:00,
2013-06-10 18:33:00,72.6,51.8,29.52,East,86,0.0,0.0,48,0.00,,,0.00,0,Wunderground v.1.15,2013-06-11 01:33:00,
2013-06-10 18:38:00,72.5,51.7,29.52,East,86,0.0,0.0,48,0.00,,,0.00,0,Wunderground v.1.15,2013-06-11 01:38:00,
2013-06-10 18:43:00,72.5,51.7,29.52,East,86,0.0,0.0,48,0.00,,,0.00,0,Wunderground v.1.15,2013-06-11 01:43:00,
2013-06-10 18:48:00,72.5,51.7,29.52,East,86,0.0,0.0,48,0.00,,,0.00,0,Wunderground v.1.15,2013-06-11 01:48:00,
2013-06-10 18:53:00,72.5,51.7,29.52,East,86,0.0,0.0,48,0.00,,,0.00,0,Wunderground v.1.15,2013-06-11 01:53:00,
2013-06-10 18:58:00,72.5,51.1,29.52,East,86,0.0,0.0,47,0.00,,,0.00,0,Wunderground v.1.15,2013-06-11 01:58:00,
2013-06-10 19:03:00,72.4,51.0,29.52,East,86,0.0,0.0,47,0.00,,,0.00,0,Wunderground v.1.15,2013-06-11 02:03:00,
2013-06-10 19:08:00,72.4,51.0,29.52,East,86,0.0,0.0,47,0.00,,,0.00,0,Wunderground v.1.15,2013-06-11 02:08:00,
2013-06-10 19:13:00,72.4,51.0,29.52,East,86,0.0,0.0,47,0.00,,,0.00,0,Wunderground v.1.15,2013-06-11 02:13:00,
2013-06-10 19:18:00,72.4,50.4,29.52,East,86,0.0,0.0,46,0.00,,,0.00,0,Wunderground v.1.15,2013-06-11 02:18:00,
2013-06-10 19:23:00,72.3,50.9,29.52,East,86,0.0,0.0,47,0.00,,,0.00,0,Wunderground v.1.15,2013-06-11 02:23:00,
2013-06-10 19:28:00,72.3,50.4,29.52,East,86,0.0,0.0,46,0.00,,,0.00,0,Wunderground v.1.15,2013-06-11 02:28:00,
2013-06-10 19:33:00,72.3,50.9,29.52,East,86,0.0,0.0,47,0.00,,,0.00,0,Wunderground v.1.15,2013-06-11 02:33:00,
2013-06-10 19:38:00,72.2,50.8,29.52,East,86,0.0,0.0,47,0.00,,,0.00,0,Wunderground v.1.15,2013-06-11 02:38:00,
2013-06-10 19:43:00,72.2,50.3,29.52,East,86,0.0,0.0,46,0.00,,,0.00,0,Wunderground v.1.15,2013-06-11 02:43:00,
2013-06-10 19:48:00,72.2,50.3,29.52,East,86,0.0,0.0,46,0.00,,,0.00,0,Wunderground v.1.15,2013-06-11 02:48:00,
2013-06-10 19:53:00,72.2,50.3,29.52,East,86,0.0,0.0,46,0.00,,,0.00,0,Wunderground v.1.15,2013-06-11 02:53:00,
2013-06-10 19:58:00,72.2,50.8,29.52,East,86,0.0,0.0,47,0.00,,,0.00,0,Wunderground v.1.15,2013-06-11 02:58:00,
2013-06-10 20:03:00,72.2,50.3,29.52,East,86,0.0,0.0,46,0.00,,,0.00,0,Wunderground v.1.15,2013-06-11 03:03:00,
2013-06-10 20:08:00,72.2,50.3,29.52,East,86,0.0,0.0,46,0.00,,,0.00,0,Wunderground v.1.15,2013-06-11 03:08:00,
2013-06-10 20:13:00,72.1,50.8,29.52,East,86,0.0,0.0,47,0.00,,,0.00,0,Wunderground v.1.15,2013-06-11 03:13:00,
2013-06-10 20:18:00,72.1,50.8,29.52,East,86,0.0,0.0,47,0.00,,,0.00,0,Wunderground v.1.15,2013-06-11 03:18:00,
2013-06-10 20:23:00,72.1,50.2,29.52,East,86,0.0,0.0,46,0.00,,,0.00,0,Wunderground v.1.15,2013-06-11 03:23:00,
2013-06-10 20:28:00,72.1,50.2,29.52,East,86,0.0,0.0,46,0.00,,,0.00,0,Wunderground v.1.15,2013-06-11 03:28:00,
2013-06-10 20:33:00,72.1,50.8,29.52,East,86,0.0,0.0,47,0.00,,,0.00,0,Wunderground v.1.15,2013-06-11 03:33:00,
2013-06-10 20:38:00,72.1,50.8,29.53,East,86,0.0,0.0,47,0.00,,,0.00,0,Wunderground v.1.15,2013-06-11 03:38:00,
2013-06-10 20:43:00,72.1,50.8,29.53,East,86,0.0,0.0,47,0.00,,,0.00,0,Wunderground v.1.15,2013-06-11 03:43:00,
2013-06-10 20:48:00,72.1,50.8,29.53,East,86,0.0,0.0,47,0.00,,,0.00,0,Wunderground v.1.15,2013-06-11 03:48:00,
2013-06-10 20:53:00,72.1,50.8,29.53,East,86,0.0,0.0,47,0.00,,,0.00,0,Wunderground v.1.15,2013-06-11 03:53:00,
2013-06-10 20:58:00,72.0,50.7,29.53,East,86,0.0,0.0,47,0.00,,,0.00,0,Wunderground v.1.15,2013-06-11 03:58:00,
2013-06-10 21:01:00,72.0,50.7,29.53,East,86,0.0,0.0,47,0.00,,,0.00,0,Wunderground v.1.15,2013-06-11 04:01:00,
2013-06-10 21:06:00,72.0,50.7,29.53,East,86,0.0,0.0,47,0.00,,,0.00,0,Wunderground v.1.15,2013-06-11 04:06:00,
2013-06-10 21:11:00,72.0,50.7,29.54,East,86,0.0,0.0,47,0.00,,,0.00,0,Wunderground v.1.15,2013-06-11 04:11:00,
2013-06-10 21:16:00,72.0,50.7,29.54,East,86,0.0,0.0,47,0.00,,,0.00,0,Wunderground v.1.15,2013-06-11 04:16:00,
2013-06-10 21:21:00,72.0,50.7,29.54,East,86,0.0,0.0,47,0.00,,,0.00,0,Wunderground v.1.15,2013-06-11 04:21:00,
2013-06-10 21:26:00,72.0,50.7,29.54,East,86,0.0,0.0,47,0.00,,,0.00,0,Wunderground v.1.15,2013-06-11 04:26:00,
2013-06-10 21:31:00,72.0,50.7,29.55,East,86,0.0,0.0,47,0.00,,,0.00,0,Wunderground v.1.15,2013-06-11 04:31:00,
2013-06-10 21:37:00,72.0,50.7,29.55,East,86,0.0,0.0,47,0.00,,,0.00,0,Wunderground v.1.15,2013-06-11 04:37:00,
2013-06-10 21:42:00,72.0,50.7,29.55,East,86,0.0,0.0,47,0.00,,,0.00,0,Wunderground v.1.15,2013-06-11 04:42:00,
2013-06-10 21:47:00,71.9,50.6,29.55,East,86,0.0,0.0,47,0.00,,,0.00,0,Wunderground v.1.15,2013-06-11 04:47:00,
2013-06-10 21:52:00,71.9,50.6,29.56,East,86,0.0,0.0,47,0.00,,,0.00,0,Wunderground v.1.15,2013-06-11 04:52:00,
2013-06-10 22:00:00,71.9,50.6,29.56,East,86,0.0,0.0,47,0.00,,,0.00,0,Wunderground v.1.15,2013-06-11 05:00:00,
2013-06-10 22:05:00,71.9,50.6,29.57,East,86,0.0,0.0,47,0.00,,,0.00,0,Wunderground v.1.15,2013-06-11 05:05:00,
2013-06-10 22:10:00,71.9,50.6,29.57,East,86,0.0,0.0,47,0.00,,,0.00,0,Wunderground v.1.15,2013-06-11 05:10:00,
2013-06-10 22:15:00,71.9,50.6,29.57,East,86,0.0,0.0,47,0.00,,,0.00,0,Wunderground v.1.15,2013-06-11 05:15:00,
2013-06-10 22:20:00,71.8,50.5,29.57,East,86,0.0,0.0,47,0.00,,,0.00,0,Wunderground v.1.15,2013-06-11 05:20:00,
2013-06-10 22:25:00,71.8,51.0,29.57,East,86,0.0,0.0,48,0.00,,,0.00,0,Wunderground v.1.15,2013-06-11 05:25:00,
2013-06-10 22:30:00,71.8,51.0,29.57,East,86,0.0,0.0,48,0.00,,,0.00,0,Wunderground v.1.15,2013-06-11 05:30:00,
2013-06-10 22:35:00,71.8,51.0,29.57,East,86,0.0,0.0,48,0.00,,,0.00,0,Wunderground v.1.15,2013-06-11 05:35:00,
2013-06-10 22:40:00,71.8,51.0,29.57,East,86,0.0,0.0,48,0.00,,,0.00,0,Wunderground v.1.15,2013-06-11 05:40:00,
2013-06-10 22:45:00,71.8,51.0,29.58,East,86,0.0,0.0,48,0.00,,,0.00,0,Wunderground v.1.15,2013-06-11 05:45:00,
2013-06-10 22:50:00,71.7,51.0,29.58,East,86,0.0,0.0,48,0.00,,,0.00,0,Wunderground v.1.15,2013-06-11 05:50:00,
2013-06-10 22:55:00,71.7,51.0,29.58,East,86,0.0,0.0,48,0.00,,,0.00,0,Wunderground v.1.15,2013-06-11 05:55:00,
2013-06-10 23:00:00,71.7,51.0,29.58,East,86,0.0,0.0,48,0.00,,,0.00,0,Wunderground v.1.15,2013-06-11 06:00:00,
2013-06-10 23:05:00,71.7,51.0,29.58,East,86,0.0,0.0,48,0.00,,,0.00,0,Wunderground v.1.15,2013-06-11 06:05:00,
2013-06-10 23:10:00,71.6,50.3,29.58,East,86,0.0,0.0,47,0.00,,,0.00,0,Wunderground v.1.15,2013-06-11 06:10:00,
2013-06-10 23:15:00,71.5,50.2,29.58,East,86,0.0,0.0,47,0.00,,,0.00,0,Wunderground v.1.15,2013-06-11 06:15:00,
2013-06-10 23:20:00,71.4,50.1,29.58,East,86,0.0,0.0,47,0.00,,,0.00,0,Wunderground v.1.15,2013-06-11 06:20:00,
2013-06-10 23:25:00,71.3,50.6,29.58,East,86,0.0,0.0,48,0.00,,,0.00,0,Wunderground v.1.15,2013-06-11 06:25:00,
2013-06-10 23:30:00,71.1,50.4,29.58,East,86,0.0,0.0,48,0.00,,,0.00,0,Wunderground v.1.15,2013-06-11 06:30:00,
2013-06-10 23:35:00,71.0,50.3,29.58,East,86,0.0,0.0,48,0.00,,,0.00,0,Wunderground v.1.15,2013-06-11 06:35:00,
2013-06-10 23:40:00,70.8,50.1,29.58,East,86,0.0,0.0,48,0.00,,,0.00,0,Wunderground v.1.15,2013-06-11 06:40:00,
2013-06-10 23:45:00,70.6,50.0,29.58,East,86,0.0,0.0,48,0.00,,,0.00,0,Wunderground v.1.15,2013-06-11 06:45:00,
2013-06-10 23:50:00,70.5,49.9,29.58,East,86,0.0,0.0,48,0.00,,,0.00,0,Wunderground v.1.15,2013-06-11 06:50:00,
2013-06-10 23:55:00,70.4,49.8,29.58,East,86,0.0,0.0,48,0.00,,,0.00,0,Wunderground v.1.15,2013-06-11 06:55:00,